Theta_e
283 282 282 280 280 279 278 278 277 277 276 277 276 276 276 277 276 277 277 276 276 275 275 275 275 274 274 274 274 273 273 273 273 273 273 272 272 272 272 272 272 272 273 272 273 274 274 273 273 274 275 274 274 274 274 274 275 275 275 275 275 275 275 274 272 273 276 280 281 282 285 286 286 287 288 291 294 297 296 299 300 300 300 302 304
282 281 280 280 279 278 277 277 276 276 276 276 276 276 276 276 276 276 275 275 275 274 274 274 274 273 273 272 272 272 272 272 272 272 271 271 271 271 271 271 271 271 271 271 272 274 273 272 272 273 273 273 273 273 274 274 274 273 274 274 273 273 275 274 274 274 274 279 280 283 283 286 285 288 289 290 293 296 297 298 301 300 300 303 305
281 280 279 278 277 277 276 275 275 275 275 275 275 275 275 275 275 274 274 274 274 274 273 273 272 272 272 271 271 271 271 271 271 271 271 270 270 270 271 271 270 270 270 270 272 272 271 271 271 272 272 272 272 272 273 273 274 273 273 274 273 274 274 275 274 273 274 277 280 281 283 285 287 289 291 294 295 296 297 298 299 300 302 302 303
280 278 277 277 276 275 275 275 274 274 274 275 274 275 274 274 274 274 273 273 273 273 272 272 271 271 270 271 271 271 271 271 271 271 270 270 270 270 270 270 270 270 270 272 274 271 270 270 270 271 271 270 270 271 272 272 273 273 273 274 274 273 274 275 275 274 274 274 278 280 283 284 287 289 292 294 294 295 297 298 299 300 300 301 303
278 277 276 275 275 274 274 274 274 274 274 274 274 274 274 274 274 273 272 272 272 271 271 271 270 270 270 270 270 270 270 270 270 270 270 270 270 270 270 270 270 270 271 271 272 270 270 270 270 271 271 270 270 271 271 271 272 273 273 274 275 275 276 276 277 277 276 276 278 281 283 284 287 289 291 292 294 295 297 296 297 297 298 300 302
277 276 275 274 274 273 274 274 273 273 274 274 273 273 273 273 272 272 272 271 271 270 270 270 270 269 270 270 270 270 270 270 270 270 270 270 270 270 270 270 271 272 271 270 270 270 270 270 271 271 271 270 270 271 272 272 272 272 272 273 274 274 274 274 274 274 275 277 279 280 282 283 285 288 291 292 292 292 293 295 297 297 297 298 300
275 274 274 274 273 273 274 273 274 273 273 273 273 273 272 272 271 270 270 270 269 269 269 269 269 269 269 269 269 270 270 270 270 271 271 271 271 270 270 271 270 270 270 270 270 271 271 271 271 271 271 271 271 271 271 271 272 272 273 273 273 273 273 274 274 275 275 275 276 278 281 285 286 286 290 293 294 292 292 292 292 295 296 297 297
274 274 273 273 273 273 273 273 273 273 273 272 272 271 271 271 270 270 269 268 268 268 268 268 269 269 269 269 270 270 270 270 270 271 271 271 271 271 270 270 270 271 271 270 271 271 271 272 272 272 272 272 272 273 272 271 272 272 273 273 273 273 273 273 274 275 276 276 276 277 280 283 287 289 291 292 291 291 293 293 291 292 293 296 298
273 273 273 273 273 273 273 273 272 272 271 271 270 270 269 269 269 268 268 268 268 268 268 268 268 268 269 270 270 270 270 270 270 270 270 270 271 271 271 271 272 271 272 272 273 273 273 273 273 273 273 275 275 276 275 275 272 271 272 273 273 273 272 272 273 274 276 276 276 278 279 281 285 287 288 288 288 289 292 294 293 293 293 293 295
272 272 272 272 273 273 272 271 271 271 270 269 269 269 268 268 267 267 267 267 267 268 268 268 268 269 269 269 270 269 269 270 270 272 273 272 272 272 272 272 272 272 272 272 273 273 274 274 275 276 276 276 276 277 278 278 278 276 274 274 274 273 273 273 273 273 273 275 277 278 278 280 284 287 287 288 290 291 291 292 291 292 292 292 294
272 272 272 273 272 272 271 271 270 269 269 268 267 267 266 266 266 265 265 266 266 267 267 268 268 269 269 268 268 269 269 269 271 274 275 276 274 272 272 273 274 273 273 273 273 274 274 275 275 277 277 277 275 277 279 279 279 279 279 280 279 276 274 273 273 274 274 274 276 278 280 282 284 287 287 288 289 290 290 292 292 292 291 289 289
271 271 272 271 271 271 270 270 268 268 267 266 265 265 265 264 264 264 265 265 266 267 267 268 268 268 268 268 268 268 268 270 272 274 275 276 276 274 274 273 274 274 274 274 274 274 274 275 275 276 276 276 276 276 277 279 279 280 280 280 280 281 281 277 275 275 275 274 275 276 277 278 282 286 287 288 288 289 290 291 291 291 291 291 291
271 271 271 270 270 270 269 268 267 266 265 265 264 264 263 263 263 264 264 265 266 266 267 267 267 267 267 267 267 268 268 270 273 274 275 276 277 276 274 274 274 274 274 274 274 274 274 274 274 275 275 278 278 277 277 277 278 279 279 280 280 280 281 281 281 278 277 276 276 276 278 279 281 284 288 289 290 288 289 287 287 288 290 292 293
270 270 269 269 269 268 267 266 265 265 264 264 264 263 263 263 264 264 265 265 265 266 266 266 266 266 267 266 266 267 268 270 273 274 275 276 277 277 274 274 274 273 273 273 273 273 273 273 273 273 275 275 276 276 276 277 277 277 277 277 277 278 280 280 280 280 280 277 277 277 279 281 280 283 288 290 288 287 286 285 286 286 286 287 291
269 269 268 268 268 267 266 265 264 264 263 263 263 263 263 263 263 264 265 265 265 265 265 265 265 265 265 266 265 266 267 271 273 274 275 276 277 277 274 273 273 273 273 273 273 273 273 273 273 273 274 275 275 276 276 276 276 276 276 276 276 277 277 277 277 277 277 278 278 278 280 282 282 284 286 289 289 289 288 286 287 286 286 287 289
268 268 267 267 266 266 264 264 263 263 263 263 262 262 263 263 263 264 264 264 265 265 265 265 264 264 265 265 265 265 267 271 273 274 275 276 277 274 273 273 273 273 273 273 273 274 274 273 273 273 274 274 276 279 279 277 277 276 276 275 276 276 277 279 280 280 278 278 280 280 281 283 285 285 286 288 289 289 287 287 287 286 285 285 285
267 267 266 266 265 265 264 263 262 262 263 262 262 262 262 262 263 264 263 263 264 264 263 264 264 264 264 264 265 265 266 270 273 275 275 276 275 273 273 272 272 272 273 273 274 274 274 274 274 274 274 274 277 279 280 280 277 276 276 275 275 275 275 277 280 281 281 282 283 284 285 286 286 288 289 290 288 289 287 285 285 285 284 283 285
266 265 265 265 264 264 263 262 262 262 262 261 261 262 262 263 263 263 262 262 262 263 263 263 264 264 264 264 265 265 267 270 273 274 275 276 276 273 272 272 272 272 272 273 274 274 274 276 276 275 274 275 278 279 280 279 276 276 276 276 276 275 276 277 278 279 281 281 282 284 286 286 286 287 288 289 290 289 286 283 285 285 284 284 284
265 264 264 264 263 263 262 262 262 261 261 261 261 261 261 262 262 263 262 262 262 263 263 263 263 264 264 265 267 268 268 269 272 274 275 276 274 273 272 272 271 271 272 272 273 274 274 275 276 276 276 277 279 280 281 279 277 277 277 276 276 275 276 277 277 277 278 278 280 282 284 285 286 286 286 288 288 288 288 287 286 285 284 284 285
265 264 264 263 262 261 261 260 261 260 260 260 261 261 262 262 262 262 261 262 262 262 262 263 262 263 265 266 267 268 268 269 270 274 275 275 276 273 273 272 271 271 272 272 272 272 273 273 274 277 278 279 279 280 280 281 278 278 278 277 276 275 278 278 278 278 278 279 279 281 283 285 285 286 286 287 287 288 288 288 287 286 285 285 285
263 263 262 261 260 260 260 260 259 259 260 260 261 260 261 261 261 260 260 261 261 261 261 262 263 265 266 267 267 268 269 269 270 273 274 275 276 275 272 272 272 272 271 271 271 271 271 272 273 275 277 278 279 279 280 281 281 279 278 278 278 279 280 277 278 279 278 280 280 281 281 284 285 285 286 287 287 288 288 288 288 289 287 286 285
262 261 260 260 260 259 259 260 259 259 259 259 260 260 261 260 260 260 261 261 260 260 261 262 264 265 266 267 268 268 270 271 269 272 274 275 276 277 273 273 273 272 271 270 271 271 271 272 272 274 277 278 278 279 280 280 281 279 279 282 282 282 280 279 278 278 278 280 281 281 281 282 283 284 286 287 287 287 288 288 289 289 290 290 288
260 260 259 259 258 258 258 258 258 259 259 259 259 259 260 259 259 259 259 260 260 261 262 263 264 264 266 267 268 268 269 269 271 270 273 274 276 276 276 275 276 273 271 269 270 270 271 272 273 275 277 278 279 280 280 281 280 279 281 282 283 283 282 280 279 278 278 278 279 280 281 282 282 283 284 285 287 288 288 288 289 290 290 291 292
259 258 258 258 257 257 258 258 258 259 258 259 259 258 259 259 259 260 260 260 261 261 263 263 264 264 265 266 267 268 268 269 270 272 272 274 276 276 276 276 276 272 271 270 270 271 271 272 273 277 277 278 278 279 280 280 279 281 282 282 283 283 281 280 280 279 279 279 279 279 280 282 283 283 285 286 287 288 288 289 289 291 291 291 292
258 257 257 257 257 257 257 258 258 258 258 259 259 259 258 258 259 261 260 261 261 261 262 263 264 265 265 265 266 267 268 268 268 270 273 274 275 275 276 276 275 275 270 270 271 271 274 275 276 276 276 277 277 278 279 280 281 282 282 282 282 281 281 280 280 279 278 278 279 280 281 282 283 284 286 287 288 288 288 288 289 289 290 291 291
256 256 256 256 256 257 257 258 258 258 258 259 259 259 259 259 260 260 260 261 262 262 262 263 264 264 264 265 265 266 267 267 268 269 271 272 273 274 274 274 273 273 272 271 274 274 274 274 274 274 274 273 272 274 277 278 280 281 281 282 281 282 281 280 280 279 279 279 280 280 281 283 284 285 287 288 287 286 287 287 287 288 289 290 291
256 256 256 256 256 257 257 258 258 258 258 259 259 259 259 260 260 260 261 261 261 262 263 264 264 264 264 264 265 266 266 267 268 269 270 270 270 271 270 270 272 272 270 270 271 269 269 270 270 273 273 274 274 274 274 279 280 280 281 282 282 282 282 281 280 280 280 280 281 282 283 284 286 287 286 287 286 287 288 287 287 288 289 291 292
255 255 256 257 257 257 258 258 258 259 258 259 259 259 260 260 260 261 261 261 261 262 264 264 264 264 264 264 265 265 265 266 267 269 270 270 270 270 270 269 268 268 268 269 269 268 267 269 270 269 269 269 269 269 270 272 274 278 281 282 281 282 282 282 282 281 281 282 282 283 283 284 284 285 286 286 286 287 288 288 288 288 290 291 292
256 256 257 257 258 258 258 258 259 259 258 258 258 259 259 260 261 262 263 264 265 265 265 265 265 265 265 265 264 264 265 266 268 273 271 273 270 269 268 268 268 268 270 272 268 267 266 266 266 266 266 266 267 267 268 269 270 271 271 275 279 282 282 281 280 281 281 282 281 282 282 283 283 285 285 285 286 287 288 288 289 289 291 292 292
256 256 257 258 258 258 258 258 258 258 258 258 258 258 260 263 263 263 263 266 267 268 268 266 267 266 266 266 267 265 265 268 273 274 273 273 273 273 272 272 272 270 271 271 268 265 264 264 265 265 265 265 265 265 266 267 267 268 269 272 273 275 279 282 282 282 283 283 283 283 283 283 283 284 285 285 286 287 288 288 289 291 291 292 293
257 257 257 257 258 258 258 258 258 258 258 258 258 258 259 261 264 265 266 266 267 267 268 268 269 269 267 266 267 270 271 272 273 273 273 273 273 272 272 271 271 272 272 266 264 263 263 263 264 265 265 265 265 265 265 266 266 267 267 269 270 272 274 276 281 283 284 283 284 284 284 284 284 285 285 285 286 287 288 289 290 292 292 293 293
257 257 258 258 258 258 259 258 258 258 258 258 258 258 258 259 261 265 266 265 266 266 267 267 268 268 269 268 267 266 269 271 272 272 272 272 272 272 271 270 270 271 271 268 262 262 263 262 263 264 264 264 264 265 265 265 266 266 267 267 268 269 271 272 274 274 280 284 285 285 285 285 285 285 285 285 286 287 288 289 291 292 293 294 294
258 258 258 258 258 258 258 258 258 257 257 257 257 257 257 257 259 259 261 263 265 265 265 266 267 267 268 269 269 269 270 271 271 271 271 271 271 271 270 268 269 270 268 263 261 261 262 262 262 263 264 264 264 265 265 265 266 266 266 266 267 268 269 270 272 274 278 282 285 285 285 285 285 285 285 286 286 286 287 289 292 292 293 293 293
258 258 258 258 258 258 258 258 257 257 257 257 257 256 256 256 255 254 255 257 258 261 263 265 265 266 266 268 268 269 270 270 270 270 270 270 270 270 268 263 267 268 265 261 261 261 261 262 262 263 263 264 265 265 265 265 266 266 266 266 267 268 268 269 270 272 275 277 281 285 285 285 285 285 285 286 287 287 288 290 292 292 292 293 293
258 257 257 258 259 258 259 258 257 257 256 256 256 255 255 254 254 254 254 254 254 254 255 256 260 264 263 264 266 268 269 270 269 269 269 269 269 268 265 260 259 259 260 260 261 261 261 261 262 262 263 263 264 265 264 265 265 266 266 266 266 267 267 268 269 271 271 273 275 279 284 285 285 285 286 286 287 288 289 291 292 292 292 293 293
258 258 257 257 258 259 258 257 257 257 257 256 256 255 254 254 254 254 254 253 253 253 254 255 255 258 262 263 265 267 268 268 268 268 268 268 268 265 258 258 258 258 258 259 260 260 261 261 262 262 263 263 264 265 265 265 265 266 266 266 266 266 267 267 268 269 270 270 272 276 280 284 286 286 286 286 287 288 290 291 292 292 292 293 293
258 258 258 258 258 257 257 257 257 257 256 255 254 254 254 253 253 253 253 252 252 253 253 253 254 255 258 258 260 263 266 267 266 266 266 266 266 260 259 258 257 257 258 258 259 260 260 261 262 262 263 263 264 265 265 265 266 266 267 267 267 266 267 267 268 268 267 268 269 271 273 278 285 286 286 286 288 289 290 291 292 291 292 291 291
259 258 257 257 257 256 256 256 257 256 254 254 253 253 253 253 253 252 252 251 253 252 252 252 254 253 254 254 258 258 260 262 263 262 262 262 259 258 258 258 258 257 257 258 259 259 260 260 261 262 263 263 263 265 265 265 266 266 266 266 267 267 269 267 267 266 266 267 267 268 271 274 280 286 287 288 289 290 290 290 292 292 291 291 291
258 258 258 258 257 256 255 255 254 253 253 253 253 252 253 253 252 252 252 251 250 251 252 252 252 253 253 254 253 258 259 255 254 255 255 256 257 257 257 257 257 257 257 257 258 259 259 260 261 262 263 263 263 264 265 265 266 266 266 266 266 266 266 266 265 265 265 266 266 267 269 271 275 281 288 289 289 290 290 290 291 292 291 291 292
258 258 259 259 257 256 254 253 253 253 253 252 252 252 252 252 251 251 250 250 250 251 251 251 251 252 252 252 255 259 255 253 253 253 254 254 255 256 256 256 256 256 256 257 258 258 259 260 261 262 262 263 263 264 265 265 265 266 266 266 266 266 266 266 265 265 265 265 266 267 268 269 272 276 283 290 290 290 290 290 291 291 292 291 292
259 259 258 259 256 254 253 253 253 253 252 252 252 252 252 251 251 251 250 250 251 250 250 250 251 251 252 255 262 261 254 252 252 252 253 253 254 254 255 255 255 255 256 256 258 258 259 260 261 262 262 263 263 264 265 266 266 266 266 266 266 266 266 266 266 265 265 265 265 266 267 269 271 274 278 285 289 290 290 291 291 291 291 291 292
259 258 257 256 255 253 253 252 252 251 251 251 251 252 251 251 250 250 250 250 250 250 250 250 251 251 253 259 260 260 254 251 252 252 253 253 253 254 254 255 255 255 255 256 257 258 259 260 261 262 262 262 263 264 265 265 266 266 266 266 266 266 266 265 265 265 265 265 265 266 267 268 270 273 276 281 287 290 290 290 291 291 291 291 291
257 256 255 254 253 253 252 252 251 250 250 251 251 251 251 250 249 250 249 250 250 250 250 250 250 250 251 256 256 257 251 251 251 251 252 252 253 253 254 254 255 255 255 256 257 259 260 260 261 262 262 263 263 264 264 265 266 266 266 266 266 266 265 265 265 265 265 265 265 266 266 267 269 271 274 279 285 289 289 289 290 290 290 291 291
255 254 253 253 253 252 251 251 251 251 251 251 250 250 250 249 249 248 249 248 249 249 250 249 249 249 249 251 251 250 251 250 250 251 251 252 252 253 253 254 254 254 255 256 257 259 259 260 261 262 262 263 264 264 265 266 267 266 266 266 266 266 266 265 265 265 265 265 265 265 266 267 268 270 273 278 283 287 288 288 289 289 290 290 290
253 253 252 252 251 251 250 251 250 250 250 249 249 249 249 249 249 249 249 249 249 249 249 249 249 249 249 249 249 250 249 250 250 250 251 251 252 252 253 253 253 254 255 256 257 258 259 260 260 261 262 263 264 264 265 266 268 268 267 267 267 267 266 266 266 266 266 265 265 265 265 266 267 269 271 276 281 286 286 287 288 288 289 290 290
252 252 251 251 250 250 250 250 249 250 250 250 250 250 249 249 248 248 249 249 249 249 249 249 248 248 249 249 249 249 249 249 250 250 251 251 252 252 252 253 253 253 255 256 257 257 258 259 260 261 261 262 263 264 264 266 268 268 268 268 268 268 268 267 267 267 266 265 265 265 265 266 267 269 272 275 279 284 286 287 288 288 288 287 288
253 252 252 251 251 250 249 249 249 249 249 250 250 250 250 250 249 249 248 248 249 249 249 249 248 248 248 248 249 249 249 249 250 250 250 250 251 251 252 252 252 253 254 255 256 257 258 259 259 260 261 262 263 263 264 265 268 268 269 269 269 269 268 268 267 267 266 266 266 265 265 266 267 268 270 273 278 284 286 286 286 286 287 288 288
253 253 252 251 251 250 249 250 249 249 249 249 249 249 250 249 249 249 249 248 248 248 248 248 248 248 248 249 249 249 249 249 250 250 251 251 251 251 251 251 251 252 253 255 256 256 257 258 259 260 261 262 262 263 264 265 268 269 269 269 269 269 269 268 267 267 267 266 266 266 266 266 266 267 269 270 273 279 285 286 286 286 287 287 288
252 252 251 251 251 250 250 250 250 250 250 249 249 249 249 249 249 249 248 248 249 248 249 248 248 249 248 249 249 249 249 249 249 250 250 251 251 251 251 251 251 252 253 254 255 256 256 257 258 260 260 261 262 263 264 265 268 269 269 269 269 270 269 268 268 267 267 267 266 266 266 265 265 266 267 268 269 272 280 286 286 286 286 286 287
252 252 251 251 250 251 251 251 251 250 249 250 250 250 249 249 249 249 249 249 249 249 249 249 248 248 248 248 248 249 249 249 249 250 250 251 251 250 250 250 250 251 252 253 254 255 256 257 258 259 260 261 262 263 264 266 269 269 269 269 269 270 269 269 268 267 267 266 266 266 265 265 265 265 266 266 267 269 271 275 282 286 286 286 286
252 252 252 251 250 250 250 250 249 249 249 249 250 250 250 250 250 250 249 249 250 250 249 249 248 248 248 249 248 249 249 249 249 250 250 250 250 250 250 249 250 250 251 252 253 254 255 256 258 259 261 262 263 263 265 267 269 269 269 270 270 270 269 269 268 267 267 267 266 266 265 265 264 264 265 265 266 267 268 270 273 279 285 286 286
Wind_Speed
11 10 9 9 9 9 7 7 7 6 6 6 7 7 6 6 6 6 6 7 6 6 6 6 7 7 8 8 9 10 11 11 10 10 11 12 12 13 14 14 15 14 14 16 14 17 18 19 19 18 17 18 18 17 17 18 17 17 16 17 17 17 17 19 21 23 19 18 19 18 20 20 20 20 22 19 20 20 21 18 17 15 14 14 14
11 10 9 8 9 8 7 6 6 6 6 7 7 6 5 5 5 5 7 6 5 6 6 6 6 7 8 9 10 10 11 12 11 10 11 12 13 11 12 13 14 15 14 15 16 16 16 18 19 18 16 18 18 17 16 17 18 18 18 18 18 19 18 18 20 20 23 17 16 18 20 21 21 21 20 22 23 22 22 18 13 13 14 14 13
11 10 9 9 8 7 7 6 6 7 7 6 6 6 5 5 4 5 6 5 5 5 6 7 8 8 9 9 10 10 11 11 10 11 12 13 14 14 13 14 15 16 16 17 18 17 18 18 19 17 14 16 17 18 17 19 18 20 21 18 19 19 18 18 18 20 23 20 16 18 19 17 18 19 19 18 20 20 19 17 14 11 12 15 14
11 10 9 8 8 7 7 6 7 7 6 5 6 5 4 4 4 5 5 5 5 6 6 7 8 8 9 10 10 11 11 11 11 11 13 13 14 15 15 15 15 16 17 19 19 17 18 18 17 17 17 18 17 16 16 17 18 17 20 20 19 19 18 18 19 18 18 20 17 18 17 17 17 18 18 18 19 19 16 15 15 15 15 14 14
11 10 9 9 8 7 7 7 7 7 6 5 5 4 4 4 4 5 5 5 6 6 6 6 7 8 9 10 11 11 11 12 12 12 12 13 14 15 15 15 15 16 17 18 19 18 19 19 19 18 17 18 17 16 16 19 17 17 17 16 16 16 14 15 17 17 18 20 18 18 18 18 17 17 16 18 16 15 15 16 16 15 14 14 13
11 10 9 9 8 9 8 7 8 7 6 5 5 4 4 4 4 4 4 6 6 6 7 6 7 9 10 10 11 12 12 12 12 13 13 13 14 14 15 15 16 18 19 19 18 18 19 19 20 19 19 18 19 18 18 20 19 20 21 20 19 19 20 21 18 19 20 19 17 17 17 16 17 16 17 17 16 15 14 14 14 12 12 13 12
10 10 9 9 8 9 8 8 7 6 6 5 4 3 3 4 4 5 4 5 6 6 7 8 8 9 10 10 11 12 12 12 12 13 13 14 15 15 15 18 19 18 19 19 19 19 19 20 20 20 20 20 20 20 19 20 18 21 19 20 19 19 19 18 18 18 17 17 17 18 18 15 15 17 16 16 14 14 16 14 13 10 9 11 13
11 10 9 9 8 9 8 7 6 6 5 4 4 3 3 4 4 4 4 5 6 7 7 8 8 8 9 10 11 11 12 12 12 13 13 13 14 16 18 18 19 19 20 20 19 20 21 21 22 21 22 21 21 20 21 19 18 18 18 17 18 18 17 16 16 16 16 16 16 17 17 16 15 17 15 15 14 15 12 12 13 12 9 10 11
10 10 9 9 8 8 7 6 5 5 5 4 4 3 4 4 4 4 4 5 5 7 8 8 9 10 10 10 11 11 11 11 9 10 12 15 16 17 18 19 19 20 20 19 20 19 21 20 21 22 23 29 30 27 26 25 17 18 17 17 18 18 17 16 15 16 16 16 16 15 16 17 18 17 13 12 14 13 11 9 11 9 9 11 13
11 10 9 8 8 8 7 6 6 5 5 5 4 3 3 4 4 4 5 6 6 7 8 8 9 9 10 11 10 10 10 9 12 19 20 17 18 17 18 19 19 18 20 20 20 21 19 22 19 30 32 33 32 31 33 33 34 26 20 19 19 19 19 17 17 16 16 17 16 13 14 15 17 16 14 14 12 13 13 11 12 10 9 11 13
10 10 9 8 8 8 7 6 6 6 5 4 3 3 4 4 3 4 5 6 7 7 8 8 9 8 10 10 11 10 10 10 19 22 24 26 20 18 18 19 17 20 18 19 20 19 20 19 20 21 27 29 28 34 32 35 34 36 38 35 31 25 19 18 17 17 17 17 16 15 14 15 17 15 14 12 12 12 12 11 10 9 9 9 12
10 9 9 9 8 8 7 7 6 5 5 4 4 4 4 4 3 4 5 6 6 7 8 8 8 9 8 10 11 11 11 16 22 24 25 26 24 19 17 16 18 17 18 18 18 18 20 19 19 17 19 20 22 22 28 32 33 33 35 37 35 36 34 27 22 19 18 17 17 17 15 16 16 15 13 11 12 12 11 10 9 10 11 11 11
10 9 9 9 8 7 7 7 6 5 4 4 4 4 4 3 4 4 5 5 6 7 8 8 8 8 9 10 11 12 12 17 22 25 26 27 27 24 16 18 16 19 18 20 21 20 19 19 19 17 17 25 21 21 22 24 29 34 33 35 36 37 35 37 36 27 20 20 20 20 17 14 16 15 12 12 11 12 9 9 8 10 11 12 12
9 9 9 8 8 7 7 6 6 5 5 4 5 4 3 4 4 4 4 5 6 7 7 8 9 9 9 11 11 12 13 17 23 26 26 28 28 25 19 18 19 19 20 20 19 20 21 20 20 19 18 19 19 20 21 22 22 22 22 22 22 26 33 35 36 37 32 23 20 21 20 17 17 16 15 11 11 10 9 10 7 10 11 12 14
9 9 9 8 8 7 7 6 6 6 5 6 5 4 4 3 4 4 4 5 5 6 6 7 8 8 9 10 11 13 12 21 25 26 26 27 28 27 17 18 17 18 19 20 21 22 22 20 21 21 21 20 18 20 20 20 19 18 18 20 20 22 22 22 22 21 19 19 20 22 21 21 19 19 19 16 14 11 9 10 8 8 10 13 14
9 9 8 8 8 8 7 7 6 6 6 6 5 4 4 4 3 3 4 4 5 5 6 7 8 9 10 11 12 13 14 22 24 24 26 26 30 19 16 17 17 18 18 19 21 21 21 21 20 21 21 21 24 30 27 22 19 20 16 19 20 20 21 22 26 26 23 20 18 18 19 21 22 18 18 17 13 10 8 8 7 7 9 12 13
9 9 9 9 9 8 8 7 7 6 6 5 4 4 3 3 3 2 3 4 5 6 6 7 7 9 11 11 12 13 14 19 23 25 25 27 23 16 17 17 17 16 18 18 20 21 21 22 22 22 22 22 26 30 31 29 21 21 18 16 17 18 17 18 23 29 30 32 33 33 31 31 31 31 30 31 19 13 8 9 11 6 9 12 12
9 9 9 8 8 8 8 7 7 7 6 5 4 3 2 2 2 2 3 4 5 6 6 7 8 8 10 12 12 14 15 18 23 24 25 26 24 18 17 16 15 17 18 20 19 18 22 31 28 24 24 23 29 32 32 27 21 20 20 20 17 14 16 15 15 17 25 28 30 31 31 30 31 32 32 29 26 19 10 13 9 5 11 10 12
10 10 9 8 8 7 7 7 7 6 6 4 4 3 3 2 1 2 3 4 5 6 6 7 8 9 10 12 17 17 15 17 22 23 26 26 22 17 16 15 18 18 18 19 19 20 20 22 28 26 25 27 33 33 34 29 21 18 19 21 18 19 18 18 17 16 14 13 15 17 17 23 22 19 19 26 26 20 14 12 7 10 14 12 10
9 8 8 8 7 7 6 6 6 6 5 5 4 3 2 1 1 2 3 4 4 5 6 6 9 10 10 11 12 13 14 14 16 24 25 26 28 20 18 19 18 20 17 18 20 19 19 19 21 26 29 31 32 33 32 32 23 19 17 18 16 20 17 15 15 13 16 16 15 15 16 15 14 14 13 14 15 15 14 12 12 9 10 10 9
10 9 8 8 7 7 6 6 6 5 4 4 3 3 2 1 1 2 3 4 4 5 6 8 9 10 10 11 12 11 11 14 16 23 24 27 28 25 17 18 18 17 18 19 18 19 19 18 17 24 30 32 32 33 34 33 30 21 18 17 17 17 14 11 15 19 16 16 15 14 14 12 10 10 12 12 13 11 11 13 12 10 8 7 12
9 9 9 8 8 7 6 6 5 4 4 4 3 3 2 1 1 2 3 4 5 7 8 8 9 10 11 11 10 11 13 17 16 20 25 27 27 31 19 17 20 20 20 18 18 18 19 19 18 24 32 33 34 34 35 33 34 22 21 29 29 28 21 15 12 10 11 13 12 13 13 13 12 11 11 12 12 11 12 12 12 12 12 11 12
9 9 9 8 7 7 6 6 5 4 3 4 3 2 2 2 2 3 3 4 4 7 7 8 9 10 10 8 9 10 12 13 19 19 25 27 30 28 30 24 29 22 18 19 19 18 18 20 21 31 35 38 38 38 37 38 31 23 31 31 31 31 24 15 12 12 12 13 14 13 12 12 12 13 13 11 12 12 11 12 12 12 12 13 15
9 9 8 7 7 6 6 5 5 4 4 3 3 3 2 1 2 1 1 2 3 6 6 7 9 9 9 10 10 10 11 12 17 23 22 28 28 29 29 31 31 22 20 17 18 18 18 19 24 38 36 35 35 34 33 31 24 31 30 31 30 26 16 14 13 13 12 14 15 14 14 13 11 12 12 12 11 11 12 11 12 13 13 13 14
10 9 8 8 7 6 6 5 5 4 4 4 4 3 2 1 1 1 1 2 3 5 7 8 8 9 10 10 11 12 12 13 14 17 25 26 28 28 30 31 31 30 20 17 17 17 24 34 34 33 34 34 35 34 27 26 28 28 31 31 28 15 13 13 14 12 12 14 14 14 14 13 13 13 11 11 10 9 10 10 10 11 12 13 14
10 9 8 8 7 7 8 6 5 4 4 3 3 2 2 1 0 1 1 2 3 5 7 7 7 9 10 10 12 12 13 12 12 13 16 20 22 27 30 29 29 29 26 20 27 30 29 30 33 31 29 27 22 19 16 13 17 23 25 25 16 13 13 12 11 12 12 12 14 15 13 11 11 11 10 10 10 11 10 10 9 11 11 11 12
11 9 9 8 7 8 8 6 6 5 4 3 3 3 2 2 1 1 1 2 4 6 6 7 8 8 10 11 12 12 12 11 12 13 14 15 16 18 20 20 25 25 18 17 20 18 22 22 21 26 23 29 26 23 24 18 15 13 11 11 11 10 11 12 12 11 10 11 12 11 10 10 9 9 9 8 10 10 9 9 10 11 10 11 11
11 10 10 8 7 7 6 7 7 5 4 4 3 3 3 3 2 1 1 2 4 5 7 8 8 9 9 10 11 11 11 12 12 14 17 18 17 17 16 16 17 16 17 17 17 18 18 19 20 15 16 15 15 14 13 14 14 12 9 8 8 10 12 16 15 11 10 8 9 11 11 11 12 11 10 10 11 10 9 10 11 11 11 10 10
10 10 8 6 7 6 5 5 4 5 5 4 2 2 2 3 2 2 3 3 4 5 6 7 7 8 8 9 11 11 12 13 14 21 20 25 21 19 18 18 17 16 20 28 19 15 13 14 14 16 14 15 15 14 14 15 14 13 14 13 10 10 10 9 11 11 11 11 13 13 14 12 13 11 12 12 11 10 9 10 10 11 11 11 11
10 8 7 6 7 6 5 5 4 4 5 4 3 0 3 7 5 2 2 6 9 10 8 6 8 8 7 8 9 10 12 14 25 28 27 27 28 28 26 27 26 22 26 30 20 12 13 13 14 15 16 15 15 15 15 14 14 15 13 14 12 12 12 10 9 9 10 11 11 11 11 12 12 12 12 12 10 9 10 10 10 10 11 11 11
7 7 6 6 6 6 5 4 4 4 4 4 3 3 1 2 6 7 3 5 9 9 9 10 12 13 10 7 9 16 18 22 25 26 27 26 27 27 27 27 27 28 28 21 14 13 14 14 15 15 15 15 14 14 14 14 14 14 13 13 11 11 12 12 11 8 10 10 11 10 11 11 12 12 12 11 10 10 9 9 10 11 12 11 11
10 8 7 7 7 5 4 4 4 4 4 3 3 2 2 2 3 9 6 5 7 7 9 12 14 14 15 14 13 10 16 21 24 25 25 26 25 27 26 27 26 28 29 23 13 13 13 14 14 14 15 16 15 15 14 14 14 13 13 13 13 11 12 11 13 13 12 10 10 10 9 10 12 11 9 10 8 9 9 10 10 11 11 11 11
9 9 8 8 7 6 5 5 4 5 5 4 3 3 3 3 2 1 3 2 1 2 8 13 17 16 16 17 18 18 19 21 24 24 25 26 26 26 25 24 23 26 26 16 12 14 13 13 14 15 14 15 16 16 15 15 14 14 12 12 12 13 12 14 16 13 12 12 11 10 9 9 8 8 9 9 9 10 11 11 10 11 10 11 11
12 9 9 10 9 7 5 5 6 5 5 4 4 4 2 2 2 1 5 8 8 4 6 13 17 18 17 18 19 21 21 23 23 24 24 25 26 25 24 16 19 21 18 11 12 12 12 13 14 14 14 13 12 14 14 14 15 15 15 13 12 12 14 14 12 12 11 12 11 10 10 8 8 9 10 9 9 10 12 11 10 10 11 11 12
7 10 12 10 7 7 6 6 6 6 6 5 5 4 3 2 2 0 0 2 3 5 7 9 13 16 13 13 18 21 22 24 23 23 23 24 25 25 21 12 15 15 15 13 13 13 13 13 13 14 14 15 15 14 14 14 13 15 15 14 14 14 13 13 12 12 12 12 12 12 10 9 9 9 9 9 8 10 11 10 10 11 11 10 12
9 8 8 7 7 6 6 6 5 6 6 5 5 5 4 3 2 1 1 2 2 4 4 5 6 10 13 15 19 20 21 22 22 22 22 23 23 22 13 14 14 15 16 14 13 13 12 12 13 13 14 14 13 14 16 15 13 13 13 14 14 13 13 12 12 12 12 11 11 13 14 10 9 9 9 10 12 12 10 9 10 11 11 9 10
9 8 8 7 6 7 6 6 5 6 7 6 5 5 4 3 2 2 1 2 2 2 2 5 7 7 6 6 15 19 20 20 20 18 18 19 21 13 10 11 10 12 12 13 12 13 12 12 12 13 13 14 12 12 13 15 15 13 13 14 13 13 12 12 12 12 11 11 12 12 13 14 11 10 10 10 10 10 8 8 10 10 10 10 10
8 8 7 8 8 7 7 6 8 10 6 5 5 4 4 3 2 1 1 1 1 1 2 2 3 2 5 7 13 9 11 17 18 15 16 16 12 9 10 11 12 11 12 12 12 12 12 13 12 13 13 13 14 13 11 12 13 13 11 12 13 13 19 14 14 11 11 11 11 12 12 13 13 10 10 11 9 8 8 7 9 10 10 12 11
7 11 15 15 10 7 6 7 6 6 6 5 4 4 3 3 3 2 1 0 0 1 1 2 2 2 3 5 7 8 9 8 8 8 9 9 8 8 8 9 11 12 11 11 12 12 12 12 13 13 13 14 14 13 12 11 11 12 14 12 11 11 14 12 13 12 11 11 11 11 11 12 12 12 9 9 8 7 8 7 9 10 10 9 11
10 9 11 15 8 7 5 5 6 6 5 6 4 4 3 3 2 2 1 0 0 0 1 2 2 3 4 5 6 7 5 6 5 7 8 9 9 9 8 9 9 10 11 12 12 12 12 12 13 14 14 14 14 14 14 14 14 14 13 11 12 13 15 14 12 12 12 11 11 12 12 12 11 11 10 8 6 6 7 7 7 9 10 9 11
9 9 10 11 10 7 5 5 4 5 5 4 4 3 3 3 2 2 1 0 0 0 1 2 2 3 5 8 14 12 3 4 6 6 7 8 8 8 9 8 9 10 10 10 11 12 12 12 12 13 14 14 14 14 14 18 17 14 13 14 14 14 13 13 13 12 12 12 11 11 11 11 10 9 10 8 5 6 6 6 6 7 8 10 11
11 11 10 8 9 7 6 4 4 6 5 5 4 3 3 3 2 2 1 0 0 1 1 2 2 2 7 14 13 13 5 3 4 6 7 7 7 8 8 8 7 8 10 10 11 11 13 13 12 13 13 14 13 14 14 14 17 15 13 11 10 11 12 14 14 14 14 13 12 12 11 11 11 10 10 11 6 5 5 6 6 7 7 8 9
11 8 8 7 7 6 6 6 6 6 5 4 4 4 4 3 2 2 1 1 0 0 1 2 2 2 4 10 11 11 3 3 5 5 6 7 7 8 8 8 9 9 9 9 9 10 11 12 12 12 13 14 13 14 14 13 15 15 14 13 13 16 15 12 12 14 14 13 13 13 13 11 11 10 10 10 8 4 5 6 6 7 6 7 7
8 7 6 6 5 5 4 6 5 4 4 5 5 4 4 3 2 2 1 0 0 0 0 1 2 3 3 5 6 4 3 4 4 5 6 7 7 8 8 8 9 9 9 9 10 10 11 11 12 12 13 12 13 14 13 13 14 12 14 13 12 16 17 16 15 14 15 14 14 14 13 12 11 10 10 10 9 4 4 6 6 7 6 6 7
8 8 8 7 5 6 5 4 5 6 6 5 4 4 3 2 2 2 1 1 0 0 0 1 2 2 3 3 4 4 4 4 5 6 6 6 7 8 8 9 9 9 10 10 10 11 11 12 12 13 13 13 14 14 13 12 13 15 14 13 11 14 17 19 17 14 13 14 14 13 13 12 11 10 10 9 10 5 2 4 6 6 6 7 8
8 7 7 7 6 5 5 4 4 5 5 4 5 4 3 2 2 2 1 1 0 0 0 0 1 1 2 3 3 4 4 4 4 4 6 6 7 8 8 8 9 9 8 9 10 11 11 11 12 12 13 13 14 13 13 13 13 15 16 15 15 14 14 16 17 15 15 14 14 13 12 12 11 10 12 11 10 7 2 2 4 5 6 7 7
8 7 7 6 7 6 5 5 5 4 4 4 3 4 3 3 2 2 2 1 0 0 0 0 1 1 1 2 3 3 4 4 4 5 5 6 6 7 7 8 9 9 9 9 9 10 11 12 11 12 13 14 14 14 13 13 13 14 15 16 16 17 16 16 16 16 15 15 14 12 11 11 11 11 12 11 10 7 2 3 4 6 6 6 6
7 6 6 5 6 6 6 5 6 4 3 3 3 3 3 3 2 2 2 1 1 0 0 0 0 1 1 2 2 3 3 3 3 4 5 5 6 7 7 7 8 8 9 9 9 10 11 11 12 11 12 13 14 14 13 13 12 16 17 15 18 22 24 25 16 16 15 15 14 13 12 11 11 10 10 10 10 9 3 4 4 4 5 6 7
7 7 7 7 5 6 6 6 4 5 5 4 4 3 3 2 2 2 1 1 1 0 0 0 0 1 1 2 3 3 3 4 3 4 5 5 6 6 7 8 8 8 8 8 9 10 11 10 11 11 11 12 13 13 12 13 12 18 20 20 27 40 33 31 21 19 23 16 14 13 13 12 11 11 11 10 10 9 8 2 6 5 5 5 6
6 6 6 6 5 5 3 3 4 4 4 3 3 3 3 2 2 1 1 1 0 0 0 0 0 1 1 2 2 3 2 3 4 4 5 5 6 6 7 7 7 8 8 9 9 9 9 10 10 10 10 10 11 12 12 11 11 15 17 22 34 38 37 32 27 32 25 15 15 13 13 12 12 11 10 10 10 10 9 8 5 3 6 6 7
6 6 5 5 5 5 5 5 4 3 3 3 3 3 3 2 2 2 1 1 1 0 0 0 0 1 1 2 2 2 3 3 4 4 5 6 6 7 7 7 8 8 8 8 8 9 9 9 10 11 12 12 12 12 12 11 14 17 22 33 38 41 37 37 27 32 37 24 14 15 14 15 15 14 13 13 11 11 12 10 8 6 2 6 7
Wind_Direction
163 165 162 169 167 176 179 182 196 204 214 224 233 241 243 245 251 256 269 264 269 276 280 289 293 287 286 290 287 284 281 279 278 276 273 273 274 273 274 273 272 272 271 274 271 274 274 272 268 268 267 264 262 263 262 259 258 256 255 253 253 254 253 253 258 265 268 261 266 267 268 268 268 266 269 269 269 265 261 260 260 262 266 267 265
166 160 163 166 171 176 179 185 192 205 214 221 231 235 241 246 250 262 264 271 277 287 289 295 293 291 290 286 285 282 279 277 277 276 274 275 276 274 275 277 275 273 273 272 275 280 274 271 271 270 270 268 267 266 263 262 259 258 255 254 256 257 255 262 265 268 271 268 264 265 265 258 259 255 255 260 262 258 259 260 257 257 265 268 264
159 158 162 163 169 169 177 187 193 205 214 224 226 231 239 249 253 263 271 280 284 285 291 294 294 291 288 284 282 279 278 279 279 279 278 278 280 279 276 277 276 274 274 275 281 280 271 270 272 271 270 269 267 266 265 265 263 259 257 254 257 258 257 255 261 266 269 270 262 261 261 259 257 261 257 255 254 256 259 260 261 263 262 263 264
155 155 158 162 164 171 182 188 196 205 214 220 222 229 241 251 259 263 273 277 284 289 292 293 292 289 286 284 280 280 281 280 283 281 280 280 280 280 281 276 274 274 274 282 283 276 272 270 269 272 269 268 267 265 264 265 265 263 260 258 257 256 255 254 251 257 262 267 270 274 271 267 263 262 262 258 255 256 254 261 263 265 268 266 262
152 155 156 157 166 176 184 190 196 204 211 216 222 231 244 248 256 265 270 276 284 292 292 292 290 287 283 284 286 285 284 285 285 283 282 282 282 283 280 276 274 275 278 281 284 275 272 269 269 269 267 267 265 264 263 261 263 265 268 267 265 263 262 259 261 258 259 256 258 257 261 262 265 268 266 264 256 255 260 263 266 268 267 265 265
153 150 157 162 171 181 185 190 198 202 206 215 222 230 239 251 262 272 267 276 289 287 289 288 285 284 284 285 284 284 287 286 284 285 284 284 283 280 280 277 278 283 284 282 278 274 269 267 268 267 266 263 265 263 265 264 262 261 262 262 263 263 264 264 263 266 271 278 275 261 250 255 262 262 259 255 257 263 265 264 264 259 265 271 263
150 150 156 164 174 182 185 189 191 193 199 207 211 223 238 255 261 262 274 279 282 284 285 286 281 283 284 286 284 285 288 287 286 287 289 288 287 284 287 288 287 281 275 271 270 268 266 267 264 262 260 261 262 263 264 265 261 262 261 263 263 264 264 265 265 263 262 263 268 277 278 261 256 263 257 250 256 261 269 278 272 259 259 263 269
149 153 158 170 178 180 183 184 184 190 192 198 211 220 237 247 254 263 272 279 280 281 283 286 285 282 283 283 284 285 285 286 287 287 289 291 292 292 291 288 285 280 276 270 266 268 265 263 263 256 256 256 261 262 263 260 262 259 262 263 263 264 263 266 269 269 264 259 258 261 264 271 265 254 251 252 260 263 259 263 269 277 274 264 261
148 154 163 174 179 175 174 176 175 182 191 197 208 217 232 249 255 264 271 278 279 280 282 282 285 283 281 282 286 287 286 287 288 289 292 296 295 292 291 289 286 288 284 280 276 270 274 264 262 255 253 253 248 253 256 255 254 257 258 259 261 262 264 265 268 270 269 263 259 251 257 263 263 263 261 256 253 260 270 266 267 270 280 284 278
151 158 168 174 170 170 169 168 177 182 187 197 200 211 232 242 254 268 276 279 280 283 284 281 277 283 287 289 288 287 285 283 282 286 293 295 297 297 294 291 285 276 280 274 276 270 267 272 265 263 255 254 249 251 254 256 253 251 255 260 260 260 259 260 263 264 268 271 271 266 260 261 267 261 260 259 260 265 271 272 273 278 274 273 274
151 161 169 169 165 166 170 174 177 183 187 189 192 215 234 242 262 274 275 276 280 281 279 280 283 286 289 290 292 288 285 281 284 294 297 299 299 296 294 290 286 287 278 282 277 279 274 274 270 272 268 257 253 253 258 257 257 254 251 258 261 258 257 257 254 257 263 264 270 273 268 268 264 263 264 263 260 262 269 280 284 284 275 273 280
155 164 165 162 165 168 173 172 174 182 178 189 201 214 233 246 259 266 273 278 278 278 281 280 287 289 289 290 290 291 288 286 292 300 302 302 301 298 295 293 293 287 290 284 286 285 286 282 279 274 274 265 260 249 256 258 257 258 259 258 262 264 261 259 264 262 258 260 260 258 265 268 277 269 258 258 261 269 272 280 282 281 269 262 262
158 162 164 165 168 169 169 168 173 177 184 185 206 217 225 241 252 262 268 276 281 275 280 289 287 291 291 294 293 293 291 292 297 302 305 305 304 303 297 296 292 295 293 293 289 289 287 286 286 280 281 280 274 264 268 263 260 253 260 263 261 261 263 261 259 260 263 262 260 261 257 267 273 276 270 266 271 271 285 283 292 300 304 291 272
158 161 161 166 167 164 166 165 175 177 178 192 207 214 217 236 248 263 269 272 271 278 282 283 287 291 295 295 297 296 295 293 300 303 305 305 305 305 301 298 297 293 294 293 292 290 287 286 284 281 278 275 271 270 268 267 267 263 263 261 258 258 258 260 260 260 259 259 258 259 259 255 259 271 282 277 270 271 278 280 290 292 290 285 298
158 162 163 166 163 164 166 170 175 175 184 196 203 207 219 233 247 254 262 266 273 278 283 286 288 290 292 296 296 297 292 298 302 304 306 307 307 309 302 299 295 294 294 293 290 287 286 283 282 281 280 277 273 273 272 269 265 261 258 256 252 255 257 257 258 258 256 255 254 256 259 258 258 262 268 273 268 265 265 279 289 288 289 293 285
159 160 161 167 167 168 168 171 173 180 188 193 194 205 213 222 236 259 267 273 273 276 280 281 285 287 291 295 295 294 292 297 303 304 307 309 310 308 304 299 298 295 289 291 289 288 286 283 282 280 279 277 275 274 273 273 267 261 253 251 254 254 255 255 258 258 259 259 257 252 251 254 254 253 257 264 270 268 271 273 267 274 287 289 280
164 165 167 166 168 168 170 170 174 183 188 186 190 200 206 220 237 244 267 276 281 281 281 285 286 293 299 294 288 290 294 301 304 307 308 310 312 309 306 303 297 292 291 292 293 291 289 286 282 282 279 278 277 276 275 274 272 268 261 247 246 249 251 255 257 258 259 259 256 254 252 252 252 253 255 259 258 261 270 271 272 277 281 287 290
165 163 167 164 168 166 169 167 176 184 180 183 186 193 201 227 223 242 266 284 287 286 292 293 293 291 289 285 282 289 296 300 306 308 309 310 313 312 308 301 295 297 296 295 295 291 291 288 288 285 284 281 279 277 275 274 271 269 266 262 252 240 248 249 259 261 259 261 264 264 251 247 248 249 254 258 260 264 259 260 275 295 275 277 285
167 167 165 159 165 161 164 171 180 178 174 182 183 192 203 206 227 260 265 276 277 280 292 296 298 291 279 276 286 293 295 299 303 307 310 313 315 313 309 306 303 300 301 299 297 296 294 293 290 288 285 283 282 281 278 276 270 264 261 260 252 252 250 257 260 264 263 260 259 264 258 245 245 244 248 253 257 257 256 261 275 261 270 271 276
157 147 146 152 154 158 165 177 180 170 171 176 184 192 201 202 220 287 291 275 280 288 290 294 295 290 291 290 295 295 298 300 306 310 313 315 317 316 313 312 306 304 303 303 302 300 298 296 294 292 289 287 285 283 281 278 275 272 266 257 247 250 250 251 249 252 264 262 258 260 262 252 242 239 243 248 247 245 247 245 244 236 248 260 267
141 147 144 147 153 158 166 181 177 173 175 177 173 179 183 151 331 297 283 279 285 295 292 292 293 297 299 300 296 295 299 305 308 314 316 318 318 319 313 313 311 307 308 308 305 303 302 299 297 294 292 290 288 286 284 281 278 273 268 259 243 246 237 235 246 249 259 255 250 251 252 253 244 234 236 235 239 239 235 235 231 232 236 245 258
139 143 147 148 151 156 167 172 170 173 185 179 166 163 147 125 283 271 279 292 294 300 303 301 303 303 305 303 300 302 307 307 312 315 320 322 322 323 323 318 318 317 313 308 305 303 302 302 301 297 296 292 288 286 283 281 277 273 267 267 261 250 246 239 237 240 252 259 250 246 243 242 244 240 237 233 234 229 232 233 232 233 235 235 240
138 141 142 143 147 157 167 168 167 177 179 172 158 135 129 158 239 249 254 282 294 308 309 308 309 309 307 309 310 309 311 310 313 317 318 321 322 322 322 322 322 322 315 308 309 306 305 304 303 302 300 298 295 290 284 276 272 268 267 266 264 262 250 237 232 237 240 251 255 255 251 244 236 237 239 238 234 230 234 237 237 238 239 243 242
138 136 139 140 145 159 168 166 167 172 172 162 145 125 108 153 244 233 285 295 311 313 315 312 314 310 318 319 317 316 316 314 315 316 318 321 323 325 325 326 326 324 318 312 310 307 308 311 310 309 308 306 303 298 289 277 265 261 261 263 266 268 254 234 230 234 237 243 245 244 245 243 241 239 236 233 235 231 239 242 243 243 245 249 249
139 138 140 142 152 162 160 159 163 170 170 160 133 135 142 178 234 239 278 293 317 312 314 315 314 321 321 320 319 320 321 319 313 311 320 325 330 330 329 329 329 328 323 315 309 310 318 317 314 313 312 312 312 309 296 278 265 261 258 259 263 257 250 238 236 233 237 240 244 246 244 242 241 245 244 245 243 243 242 248 247 251 255 254 256
135 136 136 145 158 161 149 152 160 164 166 139 129 132 134 166 206 296 285 307 319 312 313 312 321 324 323 322 321 320 322 318 314 318 324 330 330 331 333 333 331 329 326 318 318 323 321 317 316 316 316 317 319 320 303 280 271 261 259 259 255 248 237 235 229 234 235 237 243 245 247 245 244 244 243 239 241 240 240 248 254 257 254 257 254
130 135 143 149 162 160 153 159 158 164 154 137 133 140 154 163 191 234 246 308 311 308 304 326 329 326 324 323 322 321 321 319 323 325 332 333 334 334 336 335 334 332 329 327 330 328 320 319 319 318 317 319 323 329 342 318 277 265 261 250 246 243 236 234 236 239 240 242 243 244 248 251 245 239 232 227 233 238 234 242 247 254 253 253 241
137 143 150 160 163 162 159 162 167 147 143 141 136 150 161 176 184 214 252 308 302 314 329 328 330 328 324 322 322 324 320 324 327 334 339 339 337 338 338 337 337 336 334 334 335 325 321 318 322 326 327 329 335 343 341 345 341 324 288 257 242 242 242 242 244 241 245 250 252 252 251 249 247 244 239 237 241 241 233 234 238 249 248 240 230
126 136 152 155 148 153 156 167 161 134 131 124 125 163 164 169 188 220 246 245 292 317 320 324 327 328 326 322 327 323 327 329 332 337 338 339 341 342 342 341 339 340 341 342 333 322 322 327 331 332 337 339 342 340 343 345 341 337 339 337 304 268 239 235 234 232 231 229 237 243 247 243 246 245 243 243 242 241 234 239 238 242 240 223 221
132 148 161 153 142 149 152 152 143 132 125 118 116 68 240 228 227 237 296 323 328 331 335 332 333 331 324 325 328 327 327 327 333 338 340 341 342 346 346 344 343 345 347 345 337 333 336 332 335 339 341 344 342 343 342 341 337 335 334 329 330 326 297 259 233 234 233 233 237 236 237 240 245 244 244 245 245 243 240 238 243 230 224 211 208
134 146 153 149 154 148 150 140 141 127 121 123 130 129 78 314 245 236 263 322 334 339 348 346 345 343 341 331 331 331 328 335 339 340 341 342 344 348 350 347 346 351 351 348 346 349 344 342 339 338 341 342 342 341 338 337 335 332 328 325 323 321 327 321 297 262 231 233 237 235 235 235 239 240 244 244 247 248 252 242 235 224 213 203 197
150 160 148 141 142 146 132 132 123 112 102 96 93 93 128 149 190 204 195 358 343 352 355 354 353 353 351 349 346 335 339 343 344 343 343 344 346 350 351 348 350 353 352 353 355 352 348 344 337 334 337 342 343 337 338 337 334 329 326 326 322 324 324 319 319 317 296 254 235 236 233 235 237 243 244 248 247 252 254 249 225 215 202 198 195
143 142 141 138 139 141 142 135 128 121 118 110 96 74 52 13 357 340 201 193 5 64 13 5 359 357 354 353 352 349 346 346 346 345 345 346 349 351 350 345 348 354 353 354 355 350 346 342 339 336 334 333 336 339 336 334 333 330 327 321 319 321 317 314 315 305 305 297 254 236 233 230 233 236 238 241 242 248 252 243 218 200 198 194 191
141 144 146 148 144 147 146 143 134 124 117 111 113 104 85 92 58 0 337 335 344 342 357 3 2 355 351 352 350 349 349 350 349 347 347 348 350 352 351 344 350 358 2 351 350 349 342 339 338 337 334 329 327 329 328 331 333 332 328 324 321 317 316 317 317 315 316 315 301 261 235 231 227 234 238 241 238 242 245 235 207 194 194 194 180
136 134 138 141 137 141 139 138 132 127 129 128 125 124 129 129 132 126 345 317 319 318 316 326 341 349 348 348 346 349 348 350 348 346 347 350 353 351 350 351 353 351 355 356 351 348 340 338 333 332 331 335 337 334 331 322 320 330 331 326 323 320 321 321 319 319 318 314 310 304 279 247 241 237 243 244 242 236 237 223 202 191 191 194 178
137 139 142 132 129 131 134 136 135 135 135 128 123 129 133 145 150 161 196 238 261 288 290 310 309 312 339 352 351 348 346 346 345 344 347 351 357 357 1 358 355 355 353 344 339 337 333 330 330 327 330 323 321 331 332 330 322 312 323 327 320 320 320 318 320 319 316 311 311 314 310 286 255 246 242 242 239 237 232 218 198 191 188 189 183
141 142 145 144 132 130 130 129 131 129 122 120 128 131 134 143 148 168 195 218 241 249 284 309 322 328 342 352 352 340 337 341 337 339 349 355 1 6 3 356 346 338 337 335 333 334 334 331 326 325 324 323 318 312 321 326 325 317 308 321 326 323 317 319 317 316 314 315 318 318 318 310 282 245 239 238 234 226 226 215 198 189 190 182 185
133 138 138 138 131 131 132 133 131 126 119 118 122 127 136 138 153 166 195 223 263 296 308 309 321 321 334 322 330 322 325 332 335 345 352 353 354 356 355 355 350 343 334 330 330 331 329 326 326 324 320 319 315 312 306 312 317 321 316 307 319 322 327 326 321 325 324 322 319 318 313 310 303 267 236 236 225 214 217 214 197 189 188 174 176
119 130 135 137 137 139 136 133 132 129 123 123 128 136 141 145 151 172 180 215 238 301 291 305 307 321 318 316 304 314 339 341 341 331 329 330 336 341 341 349 352 345 329 321 323 327 326 327 326 323 323 320 315 316 320 313 311 317 316 312 310 323 340 337 334 332 332 327 318 310 303 299 301 298 260 230 218 205 205 211 201 187 179 175 176
138 139 141 140 130 134 127 131 133 127 131 130 133 138 142 148 151 151 166 164 348 328 314 326 315 317 316 305 292 343 354 328 316 321 321 327 331 334 339 338 338 340 334 325 323 323 325 327 325 326 324 321 321 321 326 328 328 322 319 322 329 335 334 334 333 334 331 324 313 305 297 297 297 306 295 242 214 199 198 199 200 187 175 174 179
136 135 140 142 140 133 126 126 131 129 131 125 129 137 139 139 136 145 137 118 321 295 305 298 291 303 301 313 337 356 358 312 316 318 320 321 323 327 331 331 333 329 327 322 323 324 324 322 321 324 326 323 322 317 326 338 331 322 318 325 334 336 333 334 335 328 324 316 307 300 295 293 299 307 313 296 227 202 196 188 190 188 183 179 181
134 140 140 137 141 136 136 132 129 126 123 125 134 141 139 134 133 132 120 121 160 289 289 293 296 307 316 335 345 353 353 306 319 318 320 321 321 320 320 317 318 319 327 321 318 318 325 323 318 322 323 323 317 318 312 326 338 329 321 320 322 336 343 340 335 331 321 314 307 303 299 302 303 302 300 302 274 210 193 188 185 190 186 183 181
137 126 127 130 141 147 143 140 132 128 129 136 134 135 125 127 130 129 133 148 197 279 303 304 311 316 320 337 344 348 338 329 320 321 321 321 317 316 317 319 320 319 312 311 311 313 315 315 319 320 322 317 318 317 319 323 334 338 332 324 333 345 343 334 331 330 324 317 313 313 317 315 315 312 309 308 300 243 189 187 187 187 187 175 178
122 119 121 127 125 111 119 130 134 128 131 132 132 129 130 128 123 127 139 141 149 286 302 312 316 325 316 326 334 344 345 337 329 329 322 322 318 316 317 316 316 315 316 316 317 311 317 321 321 320 318 318 320 319 311 323 339 326 324 321 323 343 347 344 333 328 326 324 322 324 325 320 314 309 305 305 304 265 201 183 185 186 183 173 165
126 128 130 131 133 133 133 129 123 130 131 136 131 127 127 128 126 136 141 139 138 226 293 301 319 313 317 322 331 331 328 327 323 319 323 320 317 313 314 315 318 317 316 318 316 317 321 323 321 323 323 324 323 322 321 321 337 343 339 337 327 341 347 345 338 326 318 321 324 324 323 322 317 311 304 304 307 290 231 181 177 173 176 175 169
130 127 129 129 131 131 135 135 136 137 148 147 139 133 132 130 130 136 132 137 151 213 278 297 296 301 306 312 314 319 318 314 316 318 315 320 318 315 313 315 312 311 312 313 320 323 321 319 322 322 323 320 322 323 326 324 339 352 350 350 353 349 342 341 339 335 331 331 326 320 319 320 316 311 307 305 299 292 258 180 175 171 171 164 168
130 128 129 130 135 136 135 135 137 145 143 134 126 127 130 133 133 131 136 142 153 206 263 295 309 315 316 309 308 309 312 318 319 322 313 302 301 306 315 315 315 316 317 317 316 317 322 321 320 322 323 323 322 320 320 323 337 346 349 354 355 357 356 348 344 341 339 333 326 317 317 319 320 321 320 318 312 292 226 179 172 172 173 171 170
129 130 130 127 127 131 140 141 142 147 132 129 125 127 125 129 127 137 136 153 164 184 225 271 271 298 305 300 301 299 306 307 310 308 308 307 308 309 308 309 317 318 318 317 320 322 322 320 318 319 322 325 324 325 317 323 331 354 355 356 358 1 359 356 350 348 344 340 334 329 326 327 326 325 325 327 324 318 271 161 156 162 171 171 174
129 132 136 145 141 140 148 152 155 154 144 133 128 125 128 125 133 132 145 146 144 163 237 278 302 311 300 293 292 295 301 309 312 317 313 310 307 308 309 310 309 313 318 317 319 323 321 318 317 316 314 320 321 320 318 317 341 357 356 -0 359 2 3 2 0 356 352 348 345 343 343 342 340 335 340 342 336 329 323 279 171 167 174 168 172
128 130 129 138 133 138 138 138 134 125 126 126 126 124 128 129 137 143 140 136 141 156 198 244 289 301 306 300 305 306 317 326 325 316 312 309 309 310 311 309 311 317 321 321 320 317 319 317 311 311 314 314 320 322 319 319 344 354 355 359 1 3 5 5 4 2 360 353 351 350 346 347 349 349 349 349 347 343 348 344 329 190 168 170 175
116 124 127 133 131 135 142 142 136 130 126 128 132 128 139 141 148 141 145 145 144 138 129 293 295 289 290 285 294 301 316 313 308 306 302 305 310 314 311 315 316 315 313 311 316 320 320 315 320 321 322 320 323 322 324 328 352 354 352 359 5 6 6 9 7 7 3 359 352 357 357 357 2 359 360 357 353 356 350 344 346 337 228 181 175